This is the latest recevied weather packets stored in our database for station/object OK2ZAW-19. If no packets are shown the sender has not sent any weather packets the latest 10 day(s).
| Time | Temp. | Humidity | Pressure | Rain* | Wind** | Luminosity | Snow |
|---|---|---|---|---|---|---|---|
| 1777564302 | 18.89° C | 23% | 1027.3 hPa | - | - | 337 W/m² | - |
| 1777563991 | 18.89° C | 23% | 1027.3 hPa | - | - | 338 W/m² | - |
| 1777563679 | 18.89° C | 23% | 1027.3 hPa | - | - | 337 W/m² | - |
| 1777563368 | 18.89° C | 23% | 1027.3 hPa | - | - | 337 W/m² | - |
| 1777563057 | 18.89° C | 24% | 1027.3 hPa | - | - | 337 W/m² | - |
| 1777562745 | 18.89° C | 23% | 1027.4 hPa | - | - | 337 W/m² | - |
| 1777562434 | 18.89° C | 23% | 1027.3 hPa | - | - | 337 W/m² | - |
| 1777562123 | 18.89° C | 23% | 1027.3 hPa | - | - | 337 W/m² | - |
| 1777561811 | 18.89° C | 24% | 1027.4 hPa | - | - | 337 W/m² | - |
| 1777561189 | 18.33° C | 23% | 1027.3 hPa | - | - | 337 W/m² | - |
| 1777560566 | 18.89° C | 23% | 1027.5 hPa | - | - | 337 W/m² | - |
| 1777559320 | 18.89° C | 24% | 1027.6 hPa | - | - | 337 W/m² | - |
| 1777559009 | 18.33° C | 23% | 1027.7 hPa | - | - | 338 W/m² | - |
| 1777558698 | 18.33° C | 23% | 1027.6 hPa | - | - | 336 W/m² | - |
| 1777558386 | 18.33° C | 25% | 1027.7 hPa | - | - | 337 W/m² | - |
| 1777558075 | 17.22° C | 24% | 1027.7 hPa | - | - | 337 W/m² | - |
| 1777557764 | 17.22° C | 24% | 1027.7 hPa | - | - | 337 W/m² | - |
| 1777557453 | 17.22° C | 23% | 1027.8 hPa | - | - | 335 W/m² | - |
| 1777556519 | 17.22° C | 26% | 1027.8 hPa | - | - | 337 W/m² | - |
| 1777555897 | 16.67° C | 27% | 1028 hPa | - | - | 337 W/m² | - |
| 1777555586 | 16.11° C | 25% | 1028.1 hPa | - | - | 337 W/m² | - |
| 1777555275 | 16.11° C | 27% | 1028 hPa | - | - | 338 W/m² | - |
| 1777554652 | 15.56° C | 27% | 1028.2 hPa | - | - | 337 W/m² | - |
| 1777554341 | 15.56° C | 28% | 1028.2 hPa | - | - | 338 W/m² | - |
| 1777554031 | 15° C | 28% | 1028.2 hPa | - | - | 337 W/m² | - |
* Rain since midnight (hover to see other rain measurements)
** Current wind speed in m/s (hover to see current wind gust speed)